Location: *
(50.5492°N, 7.7469°E)
Time: 14:06:49
(UTC+00:00)

STARLINK-68 - Pass Details

Date: 21 October 2019
Orbit: 548 x 551 km, 53.0° (Epoch: 13 November)

Event Time Altitude Azimuth Distance (km) Brightness Sun altitude
Rises 17:13:13 0° 268° (W) 2,715 9.6 -8.2°
Reaches altitude 10° 17:15:28 10° 272° (W) 1,823 7.9 -8.6°
Maximum altitude 17:19:35 63° 354° (N) 619 3.9 -9.2°
Enters shadow 17:23:12 13° 74° (ENE) 1,632 5.4 -9.8°
